sat.trackr.live / text

‹ back to catalog

UNKNOWN

NORAD 82051

UNKNOWN UNKNOWN UNKNOWN

§ Identity

Operator
Country
Launch date
Launch site
Launch vehicle
Mass (kg)
RCS (m²)

External: N2YO · Heavens-Above

§ Orbital elements

Epoch: 2026-09-12T00:50:26.270592Z

Period
100.10 min
Inclination
98.7427°
Eccentricity
0.0090205
Mean motion
14.38612787 rev/d
Perigee alt
698.7 km
Apogee alt
827.5 km
Semi-major
7,141.2 km
B*
1.1213e-3
RAAN
350.0889°
Arg perigee
169.9163°
Mean anomaly
190.3860°
Rev number
61,167

§ Raw data

UNKNOWN1 82051U          26255.03502628  .00003554  00000+0  11213-2 0  99982 82051  98.7427 350.0889 0090205 169.9163 190.3860 14.38612787611674

JSON: /api/v1/satellites/82051 · /tle

For live sub-satellite position, see the globe view (requires WebGL).

§ Visibility from observer

Set your observer location to see the next 7 days of passes ≥ 10°. The values pass through the URL so the page stays shareable.

No JS? Fill the form by hand. The geolocation button needs JavaScript.